Home   Weather   Resolute Bay   Past weeks

Flag for Canada Past Weather in Resolute Bay, Nunavut, Canada — Yesterday and Last 2 Weeks

Now
-9 °F

Light snow. Partly sunny.


Feels Like: -39 °F
Forecast: -19 / -13 °F
Wind: 31 mph from Northeast

Location: Resolute

Current Time: Dec 4, 2016 at 6:34:22 pm

Latest Report: Dec 4, 2016 at 6:00 pm


Visibility: 4 mi

Pressure: 30.27 "Hg

Humidity: 70%

Dew Point: -17 °F

Location of Resolute BayLocation

Past Weather in Resolute Bay — Graph

°F

Resolute Bay Temperature Yesterday

Maximum temperature yesterday: 5 °F (at 6:00 pm)
Minimum temperature yesterday: -11 °F (at 5:00 am)
Average temperature yesterday: -2 °F

High & Low Weather Summary for the Past Weeks

 TemperatureHumidityPressure
High19 °F (Dec 1, 12:00 am)93% (Nov 29, 6:00 am)30.24 "Hg (Nov 29, 6:00 am)
Low-13 °F (Dec 2, 2:00 pm)70% (Dec 2, 11:00 am)29.60 "Hg (Dec 1, 8:00 pm)
Average4 °F81%30.04 "Hg
* Reported Nov 19 5:00 pm — Dec 4 5:00 pm, Resolute Bay, Weather by CustomWeather, © 2016

Note: Actual official high and low records may vary slightly from our data, if they occured in-between our weather recording intervals... More about our weather records

Advertising

Resolute Bay Weather History for the Previous 24 Hours

Scroll right to see more
 ConditionsComfort  
Time TempWeatherWind HumidityBarometerVisibility
5:00 pm
Sun, Dec 4
-8 °FLight snow. Overcast.37 mph77%30.24 "Hg1 mi
4:49 pm-8 °FLight snow. Overcast.36 mph77%30.24 "Hg1 mi
4:00 pm-6 °FLight snow. Broken clouds.37 mph77%30.22 "Hg1 mi
3:00 pm-2 °FLight snow. Overcast.30 mph77%30.22 "Hg3 mi
2:00 pm0 °FLight snow. Overcast.29 mph71%30.21 "Hg3 mi
1:00 pm0 °FLight snow. Overcast.24 mph78%30.20 "Hg10 mi
12:00 pm-2 °FLight snow. Mostly cloudy.24 mph77%30.19 "Hg15 mi
11:00 am0 °FLight snow. Mostly cloudy.23 mph78%30.19 "Hg15 mi
10:00 am0 °FLight snow. Mostly cloudy.22 mph78%30.18 "Hg15 mi
9:00 am0 °FLight snow. Mostly cloudy.23 mph78%30.16 "Hg15 mi
8:00 am0 °FLight snow. More clouds than sun.20 mph78%30.15 "Hg15 mi
7:00 am3 °FLight snow. Overcast.16 mph72%30.14 "Hg15 mi
6:00 am3 °FLight snow. Overcast.14 mph78%30.12 "Hg15 mi
5:00 am3 °FLight snow. Overcast.13 mph85%30.11 "Hg15 mi
4:00 am5 °FLight snow. Overcast.12 mph78%30.10 "Hg15 mi
3:00 am5 °FLight snow. Overcast.3 mph78%30.10 "Hg15 mi
2:00 am5 °FLight snow. Overcast.No wind78%30.09 "Hg15 mi
1:00 am5 °FLight snow. Overcast.3 mph85%30.07 "Hg15 mi
12:00 am5 °FLight snow. Overcast.No wind85%30.06 "Hg15 mi
11:00 pm
Sat, Dec 3
5 °FLight snow. Overcast.No wind78%30.05 "Hg15 mi
10:00 pm5 °FLight snow. Overcast.5 mph78%30.04 "Hg15 mi
9:00 pm5 °FLight snow. Overcast.No wind85%30.04 "Hg5 mi
8:00 pm5 °FLight snow. Mostly cloudy.6 mph85%30.03 "Hg15 mi
7:00 pm3 °FLight snow. Overcast.5 mph85%30.03 "Hg15 mi
6:00 pm5 °FLight snow. Mostly cloudy.12 mph85%30.03 "Hg15 mi
Weather by CustomWeather, © 2016

See weather overviewHow to use our weather pages